Volver al catálogo

STARLINK-37649

ActivoComunicacionesVLEO
NORAD 69202·PAYLOAD·🇺🇸 United States

Lanzado May 25, 2026 desde Cape Canaveral Space Force Station

Loading…

Próximos Pases (próximas 24 horas)

TLE

ActualizadoSource: CelesTrak SupGP

Época: Sep 15, 2026, 03:25 UTC

1 69202C 26114W   26258.14284722  .00048207  00000+0  14244-2 0  2581
2 69202  53.1572 138.6275 0001228  83.2871 341.6128 15.34365319    14

Sigue STARLINK-37649 en tiempo real con AllMySat

Download on the App Store